Morelia, Mexico

10:03 PM CST on March 28, 2017 (GMT -0600)
Gen Francisco J Mujica International

Weather History for MMMM - December, 2013

Change the Weather History Date:

Friday, December 20, 2013

  Actual Average Record
Temperature  
Mean Temperature 61 °F -  
Max Temperature 77 °F 72 °F 81 °F (2012)
Min Temperature 45 °F 44 °F 30 °F (2003)
Degree Days  
Heating Degree Days 4    
Growing Degree Days 11 (Base 50)    
Moisture  
Dew Point 49 °F    
Average Humidity 71    
Maximum Humidity 100    
Minimum Humidity 29    
Precipitation  
Precipitation 0.00 in 0.02 in - ()
Sea Level Pressure  
Sea Level Pressure 30.02 in    
Wind  
Wind Speed 2 mph ()    
Max Wind Speed 14 mph    
Max Gust Speed -    
Visibility 6.4 miles    
Events      
Averages and records for this station are not official NWS values.
T = Trace of Precipitation, MM = Missing Value Source: Averaged Metar Reports

Daily Weather History Graph

Daily Weather History Graph

Search for Another Location

Airport or City:

Trip Planner

Search our weather history database for the weather conditions in past years. The results will help you decide how hot, cold, wet, or windy it might be!

Date:

Astronomy

Dec. 20, 2013 Rise Set
Actual Time 7:13 AM CST 6:09 PM CST
Civil Twilight 6:49 AM CST 6:33 PM CST
Nautical Twilight 6:22 AM CST 7:01 PM CST
Astronomical Twilight 5:55 AM CST 7:28 PM CST
Moon 9:10 PM CST (12/20) 9:28 AM CST (12/20)
Length of Visible Light 11h 44m
Length of Day
10h 56m
Waning Gibbous, 90% of the Moon is Illuminated
Dec 20
Waning Gibbous
Dec 25
Last Quarter
Jan 1
New
Jan 7
First Quarter
Jan 15
Full

Hourly Weather History & Observations

Time (CST) Temp. Dew Point Humidity Pressure Visibility Wind Dir Wind Speed Gust Speed Precip Events Conditions
12:40 AM 51.8 °F 48.2 °F 88% 30.22 in 6.0 mi Calm Calm - N/A   Clear
1:41 AM 48.2 °F 46.4 °F 93% 30.21 in 6.0 mi Calm Calm - N/A   Clear
2:55 AM 52 °F 48 °F 80% 29.88 in 5 mi SSE 2.2 mph - -  
3:43 AM 44.6 °F 42.8 °F 93% 30.20 in 6.0 mi Calm Calm - N/A   Clear
4:42 AM 41.0 °F 41.0 °F 100% 30.19 in 6.0 mi Calm Calm - N/A   Clear
5:54 AM 42.8 °F 41.0 °F 93% 29.91 in 6.0 mi Calm Calm - N/A   Clear
6:53 AM 41.0 °F 41.0 °F 100% 30.21 in 6.0 mi Calm Calm - N/A   Clear
7:41 AM 39.2 °F 39.2 °F 100% 30.22 in 6.0 mi Calm Calm - N/A   Clear
8:42 AM 51.8 °F 48.2 °F 88% 29.95 in 6.0 mi Calm Calm - N/A   Clear
8:55 AM 52 °F 49 °F 84% 30.02 in 7 mi WSW 2.2 mph - -  
9:42 AM 57.2 °F 48.2 °F 72% 30.24 in 6.0 mi Calm Calm - N/A   Clear
10:43 AM 64.4 °F 48.2 °F 56% 30.23 in 6.0 mi Variable 2.3 mph - N/A   Clear
11:44 AM 69.8 °F 50.0 °F 49% 29.88 in 6.0 mi Variable 3.5 mph - N/A   Clear
11:55 AM 72 °F 55 °F 45% 29.95 in 7 mi East 2.2 mph - -  
12:43 PM 73.4 °F 50.0 °F 44% 30.16 in 7.0 mi SSE 10.4 mph - N/A   Scattered Clouds
1:41 PM 75.2 °F 50.0 °F 41% 30.13 in 7.0 mi South 13.8 mph - N/A   Scattered Clouds
2:49 PM 75.2 °F 50.0 °F 41% 29.82 in 7.0 mi South 10.4 mph - N/A   Mostly Cloudy
2:50 PM 76 °F 50 °F 29% 29.80 in 7 mi South 2.2 mph - -   Partly Cloudy
3:45 PM 73.4 °F 51.8 °F 47% 30.11 in 7.0 mi Calm Calm - N/A   Mostly Cloudy
5:12 PM 71.6 °F 51.8 °F 50% 30.11 in 7.0 mi South 13.8 mph - N/A   Mostly Cloudy
5:45 PM 67 °F 53 °F 52% 29.75 in 7 mi South 2.2 mph - -   Partly Cloudy
5:50 PM 64.4 °F 48.2 °F 56% 29.83 in 7.0 mi South 9.2 mph - N/A   Mostly Cloudy
6:00 PM 67 °F 53 °F 52% 29.75 in 7 mi South 2.2 mph - -   Partly Cloudy
6:45 PM 64.4 °F 51.8 °F 64% 30.13 in 7.0 mi South 8.1 mph - N/A   Scattered Clouds
7:43 PM 62.6 °F 51.8 °F 68% 30.15 in 7.0 mi South 4.6 mph - N/A   Scattered Clouds
8:47 PM 59.0 °F 51.8 °F 77% 29.86 in 7.0 mi West 5.8 mph - N/A   Scattered Clouds
8:50 PM 60 °F 57 °F 87% 29.77 in 5 mi NNW 2.2 mph - -   Partly Cloudy
9:44 PM 55.4 °F 51.8 °F 88% 30.20 in 6.0 mi SW 4.6 mph - N/A   Clear
10:40 PM 55.4 °F 51.8 °F 88% 30.20 in 6.0 mi SSW 4.6 mph - N/A   Scattered Clouds
11:45 PM 55.4 °F 51.8 °F 88% 29.80 in 6.0 mi Calm Calm - N/A   Scattered Clouds
11:50 PM 56 °F 53 °F 86% 29.84 in 5 mi WSW 2.2 mph - -